Time,TemperatureF,DewpointF,PressureIn,WindDirection,WindDirectionDegrees,WindSpeedMPH,WindSpeedGustMPH,Humidity,HourlyPrecipIn,Conditions,Clouds,dailyrainin,SoftwareType,DateUTC
2013-02-08 00:00:00,71.4,64.9,29.91,SW,227,4.5,12.2,80,0.00,,,0.00,WUHU216PEETBRO,2013-02-08 05:00:00,
2013-02-08 00:01:00,71.4,64.8,29.91,SSW,207,0.0,12.2,80,0.00,,,0.00,WUHU216PEETBRO,2013-02-08 05:01:00,
2013-02-08 00:06:00,71.3,64.9,29.91,WSW,242,6.7,9.9,80,0.00,,,0.00,WUHU216PEETBRO,2013-02-08 05:06:00,
2013-02-08 00:11:00,71.1,64.8,29.91,SW,230,5.2,9.9,80,0.00,,,0.00,WUHU216PEETBRO,2013-02-08 05:11:00,
2013-02-08 00:16:00,71.0,64.8,29.91,SW,235,8.1,9.9,81,0.00,,,0.00,WUHU216PEETBRO,2013-02-08 05:16:00,
2013-02-08 00:21:00,70.9,64.8,29.91,SW,221,4.5,9.9,81,0.00,,,0.00,WUHU216PEETBRO,2013-02-08 05:21:00,
2013-02-08 00:26:00,70.8,64.8,29.90,SW,220,0.0,9.8,81,0.00,,,0.00,WUHU216PEETBRO,2013-02-08 05:26:00,
2013-02-08 00:31:00,70.7,64.9,29.90,WSW,255,5.4,7.5,82,0.00,,,0.00,WUHU216PEETBRO,2013-02-08 05:31:00,
2013-02-08 00:36:00,70.6,64.8,29.90,SSW,201,3.5,10.5,82,0.00,,,0.00,WUHU216PEETBRO,2013-02-08 05:36:00,
2013-02-08 00:40:00,70.5,64.8,29.90,SW,225,7.7,10.5,82,0.00,,,0.00,WUHU216PEETBRO,2013-02-08 05:40:00,
2013-02-08 00:46:00,70.5,64.9,29.90,SW,235,5.6,9.8,82,0.00,,,0.00,WUHU216PEETBRO,2013-02-08 05:46:00,
2013-02-08 00:50:00,70.4,64.9,29.90,WSW,241,7.8,11.6,83,0.00,,,0.00,WUHU216PEETBRO,2013-02-08 05:50:00,
2013-02-08 00:55:00,70.4,64.9,29.90,SW,214,8.0,11.6,83,0.00,,,0.00,WUHU216PEETBRO,2013-02-08 05:55:00,
2013-02-08 01:00:00,70.4,65.0,29.90,SW,231,4.4,9.3,83,0.00,,,0.00,WUHU216PEETBRO,2013-02-08 06:00:00,
2013-02-08 01:05:00,70.3,64.9,29.90,SW,231,7.2,9.0,83,0.00,,,0.00,WUHU216PEETBRO,2013-02-08 06:05:00,
2013-02-08 01:10:00,70.2,64.9,29.90,WSW,245,4.8,12.7,83,0.00,,,0.00,WUHU216PEETBRO,2013-02-08 06:10:00,
2013-02-08 01:15:00,70.2,64.9,29.90,SW,234,8.0,12.7,83,0.00,,,0.00,WUHU216PEETBRO,2013-02-08 06:15:00,
2013-02-08 01:20:00,70.1,65.0,29.90,WSW,255,6.7,10.4,84,0.00,,,0.00,WUHU216PEETBRO,2013-02-08 06:20:00,
2013-02-08 01:25:00,70.0,64.9,29.90,WSW,252,7.5,8.5,84,0.00,,,0.00,WUHU216PEETBRO,2013-02-08 06:25:00,
2013-02-08 01:30:00,69.9,65.0,29.90,SW,218,7.6,9.1,84,0.00,,,0.00,WUHU216PEETBRO,2013-02-08 06:30:00,
2013-02-08 01:35:00,69.9,64.9,29.90,WSW,247,5.3,9.1,84,0.00,,,0.00,WUHU216PEETBRO,2013-02-08 06:35:00,
2013-02-08 01:40:00,69.7,64.9,29.90,SW,224,4.7,9.3,85,0.00,,,0.00,WUHU216PEETBRO,2013-02-08 06:40:00,
2013-02-08 01:46:00,69.8,65.1,29.90,NW,316,2.9,9.5,85,0.00,,,0.00,WUHU216PEETBRO,2013-02-08 06:46:00,
2013-02-08 01:51:00,69.7,65.0,29.90,SW,232,4.9,9.5,85,0.00,,,0.00,WUHU216PEETBRO,2013-02-08 06:51:00,
2013-02-08 01:56:00,69.7,65.2,29.90,SSW,193,10.0,10.0,86,0.00,,,0.00,WUHU216PEETBRO,2013-02-08 06:56:00,
2013-02-08 02:01:00,69.7,65.1,29.90,WSW,242,7.0,11.7,85,0.00,,,0.00,WUHU216PEETBRO,2013-02-08 07:01:00,
2013-02-08 02:06:00,69.6,65.1,29.90,SW,223,0.0,11.7,86,0.00,,,0.00,WUHU216PEETBRO,2013-02-08 07:06:00,
2013-02-08 02:11:00,69.5,65.3,29.90,WSW,248,10.7,12.6,87,0.00,,,0.00,WUHU216PEETBRO,2013-02-08 07:11:00,
2013-02-08 02:16:00,69.5,65.4,29.90,WSW,245,5.9,12.6,87,0.00,,,0.00,WUHU216PEETBRO,2013-02-08 07:16:00,
2013-02-08 02:21:00,69.4,65.4,29.90,WSW,254,7.0,10.1,87,0.00,,,0.00,WUHU216PEETBRO,2013-02-08 07:21:00,
2013-02-08 02:26:00,69.4,65.5,29.90,West,261,7.8,11.7,87,0.00,,,0.00,WUHU216PEETBRO,2013-02-08 07:26:00,
2013-02-08 02:31:00,69.4,65.5,29.90,SW,234,11.2,11.7,87,0.00,,,0.00,WUHU216PEETBRO,2013-02-08 07:31:00,
2013-02-08 02:36:00,69.3,65.5,29.90,WSW,247,7.5,11.2,88,0.00,,,0.00,WUHU216PEETBRO,2013-02-08 07:36:00,
2013-02-08 02:41:00,69.1,65.5,29.90,WSW,238,10.4,11.2,88,0.00,,,0.00,WUHU216PEETBRO,2013-02-08 07:41:00,
2013-02-08 02:46:00,68.9,65.4,29.90,WNW,286,3.4,10.9,89,0.00,,,0.00,WUHU216PEETBRO,2013-02-08 07:46:00,
2013-02-08 02:51:00,69.0,65.5,29.90,SW,235,6.0,10.9,89,0.00,,,0.00,WUHU216PEETBRO,2013-02-08 07:51:00,
2013-02-08 02:56:00,69.0,65.6,29.90,WNW,283,5.3,9.8,89,0.00,,,0.00,WUHU216PEETBRO,2013-02-08 07:56:00,
2013-02-08 03:01:00,68.9,65.6,29.90,SW,228,5.3,9.6,89,0.00,,,0.00,WUHU216PEETBRO,2013-02-08 08:01:00,
2013-02-08 03:06:00,68.9,65.8,29.90,SW,235,5.5,9.8,90,0.00,,,0.00,WUHU216PEETBRO,2013-02-08 08:06:00,
2013-02-08 03:11:00,68.9,65.8,29.90,WSW,252,7.6,11.2,90,0.00,,,0.00,WUHU216PEETBRO,2013-02-08 08:11:00,
2013-02-08 03:16:00,68.9,65.8,29.90,SSW,206,10.5,12.9,90,0.00,,,0.00,WUHU216PEETBRO,2013-02-08 08:16:00,
2013-02-08 03:21:00,69.0,65.8,29.90,WSW,254,7.0,12.9,90,0.00,,,0.00,WUHU216PEETBRO,2013-02-08 08:21:00,
2013-02-08 03:26:00,68.8,65.8,29.90,SW,235,9.4,11.9,90,0.00,,,0.00,WUHU216PEETBRO,2013-02-08 08:26:00,
2013-02-08 03:31:00,69.2,66.1,29.91,WSW,244,5.7,13.4,90,0.00,,,0.00,WUHU216PEETBRO,2013-02-08 08:31:00,
2013-02-08 03:36:00,69.2,66.2,29.91,SW,230,6.0,13.4,90,0.00,,,0.00,WUHU216PEETBRO,2013-02-08 08:36:00,
2013-02-08 03:42:00,69.3,66.2,29.91,WSW,245,6.0,13.4,90,0.00,,,0.00,WUHU216PEETBRO,2013-02-08 08:42:00,
2013-02-08 03:47:00,69.4,66.1,29.91,WSW,255,6.5,13.4,89,0.00,,,0.00,WUHU216PEETBRO,2013-02-08 08:47:00,
2013-02-08 03:52:00,69.5,65.9,29.91,SW,223,11.7,15.5,88,0.00,,,0.00,WUHU216PEETBRO,2013-02-08 08:52:00,
2013-02-08 03:57:00,69.7,66.0,29.91,SSW,201,10.9,15.5,88,0.00,,,0.00,WUHU216PEETBRO,2013-02-08 08:57:00,
2013-02-08 04:02:00,69.6,65.9,29.91,WSW,237,9.9,12.9,88,0.00,,,0.00,WUHU216PEETBRO,2013-02-08 09:02:00,
2013-02-08 04:07:00,69.7,66.0,29.91,West,265,10.0,12.9,88,0.00,,,0.00,WUHU216PEETBRO,2013-02-08 09:07:00,
2013-02-08 04:12:00,69.7,66.0,29.91,WSW,237,13.2,17.1,88,0.00,,,0.00,WUHU216PEETBRO,2013-02-08 09:12:00,
2013-02-08 04:17:00,69.7,66.0,29.91,SW,223,13.6,17.1,88,0.00,,,0.00,WUHU216PEETBRO,2013-02-08 09:17:00,
2013-02-08 04:22:00,69.9,66.1,29.91,SW,234,6.6,16.5,88,0.00,,,0.00,WUHU216PEETBRO,2013-02-08 09:22:00,
2013-02-08 04:27:00,69.8,65.7,29.91,SW,227,10.4,17.2,87,0.00,,,0.00,WUHU216PEETBRO,2013-02-08 09:27:00,
2013-02-08 04:32:00,69.6,65.4,29.91,WSW,245,9.1,17.2,87,0.00,,,0.00,WUHU216PEETBRO,2013-02-08 09:32:00,
2013-02-08 04:37:00,69.7,65.5,29.91,WSW,248,8.7,12.4,87,0.00,,,0.00,WUHU216PEETBRO,2013-02-08 09:37:00,
2013-02-08 04:42:00,69.5,65.3,29.91,WNW,293,8.3,12.7,87,0.00,,,0.00,WUHU216PEETBRO,2013-02-08 09:42:00,
2013-02-08 04:47:00,69.4,65.2,29.91,WSW,245,8.7,12.7,87,0.00,,,0.00,WUHU216PEETBRO,2013-02-08 09:47:00,
2013-02-08 04:52:00,69.5,65.4,29.92,West,268,7.9,11.3,87,0.00,,,0.00,WUHU216PEETBRO,2013-02-08 09:52:00,
2013-02-08 04:57:00,69.4,65.3,29.92,SW,224,9.8,13.9,87,0.00,,,0.00,WUHU216PEETBRO,2013-02-08 09:57:00,
2013-02-08 05:02:00,69.3,65.3,29.92,West,266,4.2,13.9,87,0.00,,,0.00,WUHU216PEETBRO,2013-02-08 10:02:00,
2013-02-08 05:07:00,69.1,65.2,29.92,WSW,256,8.3,12.9,87,0.00,,,0.00,WUHU216PEETBRO,2013-02-08 10:07:00,
2013-02-08 05:12:00,68.8,64.9,29.93,WSW,251,11.2,14.9,87,0.00,,,0.00,WUHU216PEETBRO,2013-02-08 10:12:00,
2013-02-08 05:17:00,69.0,65.1,29.93,WSW,249,7.5,14.9,87,0.00,,,0.00,WUHU216PEETBRO,2013-02-08 10:17:00,
2013-02-08 05:22:00,68.7,64.9,29.93,WSW,251,9.6,14.2,88,0.00,,,0.00,WUHU216PEETBRO,2013-02-08 10:22:00,
2013-02-08 05:27:00,68.5,65.1,29.93,WSW,247,6.9,11.4,89,0.00,,,0.00,WUHU216PEETBRO,2013-02-08 10:27:00,
2013-02-08 05:32:00,68.6,65.2,29.93,West,268,8.5,11.4,89,0.00,,,0.00,WUHU216PEETBRO,2013-02-08 10:32:00,
2013-02-08 05:37:00,68.2,64.9,29.93,WSW,249,8.9,9.9,89,0.00,,,0.00,WUHU216PEETBRO,2013-02-08 10:37:00,
2013-02-08 05:42:00,67.7,64.2,29.93,WSW,242,8.5,11.1,89,0.00,,,0.00,WUHU216PEETBRO,2013-02-08 10:42:00,
2013-02-08 05:47:00,67.5,64.0,29.93,WSW,242,7.6,11.1,89,0.00,,,0.00,WUHU216PEETBRO,2013-02-08 10:47:00,
2013-02-08 05:52:00,67.3,63.9,29.94,West,259,5.1,12.1,89,0.00,,,0.00,WUHU216PEETBRO,2013-02-08 10:52:00,
2013-02-08 05:57:00,67.3,63.9,29.94,West,269,6.0,12.1,89,0.00,,,0.00,WUHU216PEETBRO,2013-02-08 10:57:00,
2013-02-08 06:02:00,67.1,63.9,29.94,West,261,0.0,11.1,90,0.00,,,0.00,WUHU216PEETBRO,2013-02-08 11:02:00,
2013-02-08 06:07:00,67.0,64.0,29.95,WSW,242,6.3,9.6,90,0.00,,,0.00,WUHU216PEETBRO,2013-02-08 11:07:00,
2013-02-08 06:12:00,66.8,63.9,29.95,WSW,247,5.4,9.7,90,0.00,,,0.00,WUHU216PEETBRO,2013-02-08 11:12:00,
2013-02-08 06:17:00,66.5,63.8,29.95,WSW,255,6.3,9.8,91,0.00,,,0.00,WUHU216PEETBRO,2013-02-08 11:17:00,
2013-02-08 06:22:00,66.2,63.6,29.96,West,269,4.2,10.7,91,0.00,,,0.00,WUHU216PEETBRO,2013-02-08 11:22:00,
2013-02-08 06:27:00,66.2,63.7,29.96,WSW,239,9.1,10.7,92,0.00,,,0.00,WUHU216PEETBRO,2013-02-08 11:27:00,
2013-02-08 06:32:00,66.1,63.7,29.96,WSW,237,9.3,13.0,92,0.00,,,0.00,WUHU216PEETBRO,2013-02-08 11:32:00,
2013-02-08 06:37:00,65.8,63.5,29.96,West,263,8.9,13.0,92,0.00,,,0.00,WUHU216PEETBRO,2013-02-08 11:37:00,
2013-02-08 06:42:00,65.8,63.5,29.96,NNW,334,4.8,12.9,93,0.00,,,0.00,WUHU216PEETBRO,2013-02-08 11:42:00,
2013-02-08 06:47:00,65.6,63.4,29.96,SW,223,4.3,9.4,93,0.00,,,0.00,WUHU216PEETBRO,2013-02-08 11:47:00,
2013-02-08 06:52:00,65.4,63.2,29.97,West,265,4.2,9.4,93,0.00,,,0.00,WUHU216PEETBRO,2013-02-08 11:52:00,
2013-02-08 06:59:00,65.3,63.1,29.97,SSW,208,3.4,10.9,93,0.00,,,0.00,WUHU216PEETBRO,2013-02-08 11:59:00,
2013-02-08 07:04:00,65.0,62.5,29.98,WNW,292,7.8,10.9,92,0.00,,,0.00,WUHU216PEETBRO,2013-02-08 12:04:00,
2013-02-08 07:09:00,64.9,62.4,29.98,West,266,4.8,10.9,92,0.00,,,0.00,WUHU216PEETBRO,2013-02-08 12:09:00,
2013-02-08 07:14:00,64.8,62.3,29.98,West,271,4.3,11.2,92,0.00,,,0.00,WUHU216PEETBRO,2013-02-08 12:14:00,
2013-02-08 07:19:00,64.8,62.3,29.98,WSW,249,8.6,11.2,92,0.00,,,0.00,WUHU216PEETBRO,2013-02-08 12:19:00,
2013-02-08 07:24:00,64.7,62.1,29.98,WSW,238,0.0,10.6,92,0.00,,,0.00,WUHU216PEETBRO,2013-02-08 12:24:00,
2013-02-08 07:29:00,64.6,62.0,29.98,WSW,252,0.0,9.1,92,0.00,,,0.00,WUHU216PEETBRO,2013-02-08 12:29:00,
2013-02-08 07:34:00,64.6,62.0,29.99,West,262,4.7,9.2,91,0.00,,,0.00,WUHU216PEETBRO,2013-02-08 12:34:00,
2013-02-08 07:39:00,64.6,62.0,29.99,WNW,282,4.8,10.5,91,0.00,,,0.00,WUHU216PEETBRO,2013-02-08 12:39:00,
2013-02-08 07:44:00,64.7,62.0,29.99,West,266,0.0,10.5,91,0.00,,,0.00,WUHU216PEETBRO,2013-02-08 12:44:00,
2013-02-08 07:49:00,64.7,62.0,29.99,West,261,5.3,7.3,91,0.00,,,0.00,WUHU216PEETBRO,2013-02-08 12:49:00,
2013-02-08 07:54:00,64.8,62.0,29.99,WSW,241,5.7,9.2,91,0.00,,,0.00,WUHU216PEETBRO,2013-02-08 12:54:00,
2013-02-08 07:59:00,64.8,62.0,29.99,WSW,249,7.9,9.2,91,0.00,,,0.00,WUHU216PEETBRO,2013-02-08 12:59:00,
2013-02-08 08:04:00,64.9,62.0,29.99,WSW,248,0.0,8.7,90,0.00,,,0.00,WUHU216PEETBRO,2013-02-08 13:04:00,
2013-02-08 08:09:00,65.0,62.0,30.00,NW,310,4.5,8.7,90,0.00,,,0.00,WUHU216PEETBRO,2013-02-08 13:09:00,
2013-02-08 08:14:00,65.1,62.0,30.00,NW,307,5.5,11.6,90,0.00,,,0.00,WUHU216PEETBRO,2013-02-08 13:14:00,
2013-02-08 08:19:00,65.2,62.1,30.00,West,266,6.3,11.6,90,0.00,,,0.00,WUHU216PEETBRO,2013-02-08 13:19:00,
2013-02-08 08:24:00,65.2,61.9,30.00,WSW,239,8.6,10.7,89,0.00,,,0.00,WUHU216PEETBRO,2013-02-08 13:24:00,
2013-02-08 08:29:00,65.4,62.0,30.00,SW,227,8.7,10.6,89,0.00,,,0.00,WUHU216PEETBRO,2013-02-08 13:29:00,
2013-02-08 08:34:00,65.6,61.8,30.01,West,279,8.5,11.4,88,0.00,,,0.00,WUHU216PEETBRO,2013-02-08 13:34:00,
2013-02-08 08:39:00,65.7,61.8,30.01,West,278,8.6,11.4,87,0.00,,,0.00,WUHU216PEETBRO,2013-02-08 13:39:00,
2013-02-08 08:44:00,65.8,61.5,30.01,WNW,300,0.0,14.0,86,0.00,,,0.00,WUHU216PEETBRO,2013-02-08 13:44:00,
2013-02-08 08:49:00,66.1,61.6,30.01,NW,319,7.1,14.0,85,0.00,,,0.00,WUHU216PEETBRO,2013-02-08 13:49:00,
2013-02-08 08:54:00,66.2,61.0,30.01,WNW,290,6.8,10.5,83,0.00,,,0.00,WUHU216PEETBRO,2013-02-08 13:54:00,
2013-02-08 08:59:00,66.3,60.9,30.01,WNW,295,8.4,12.4,83,0.00,,,0.00,WUHU216PEETBRO,2013-02-08 13:59:00,
2013-02-08 09:04:00,66.5,61.1,30.01,SW,220,7.4,12.4,83,0.00,,,0.00,WUHU216PEETBRO,2013-02-08 14:04:00,
2013-02-08 09:09:00,66.9,61.5,30.01,North,355,3.0,12.0,83,0.00,,,0.00,WUHU216PEETBRO,2013-02-08 14:09:00,
2013-02-08 09:14:00,67.2,61.4,30.02,WNW,296,7.5,9.5,82,0.00,,,0.00,WUHU216PEETBRO,2013-02-08 14:14:00,
2013-02-08 09:19:00,67.3,61.2,30.02,WSW,255,6.0,9.6,81,0.00,,,0.00,WUHU216PEETBRO,2013-02-08 14:19:00,
2013-02-08 09:24:00,67.7,61.5,30.02,West,261,5.7,12.6,80,0.00,,,0.00,WUHU216PEETBRO,2013-02-08 14:24:00,
2013-02-08 09:29:00,67.9,61.5,30.02,WSW,238,5.7,12.6,80,0.00,,,0.00,WUHU216PEETBRO,2013-02-08 14:29:00,
2013-02-08 09:34:00,67.8,61.5,30.02,WNW,290,8.2,13.2,80,0.00,,,0.00,WUHU216PEETBRO,2013-02-08 14:34:00,
2013-02-08 09:39:00,68.0,61.8,30.02,West,278,3.1,13.2,80,0.00,,,0.00,WUHU216PEETBRO,2013-02-08 14:39:00,
2013-02-08 09:44:00,68.5,62.0,30.02,NNW,328,8.2,12.8,80,0.00,,,0.00,WUHU216PEETBRO,2013-02-08 14:44:00,
2013-02-08 09:49:00,68.4,61.8,30.03,NW,307,7.9,12.8,79,0.00,,,0.00,WUHU216PEETBRO,2013-02-08 14:49:00,
2013-02-08 09:54:00,68.9,62.3,30.03,NW,309,4.3,10.4,79,0.00,,,0.00,WUHU216PEETBRO,2013-02-08 14:54:00,
2013-02-08 09:59:00,69.1,62.7,30.03,West,259,5.3,10.8,80,0.00,,,0.00,WUHU216PEETBRO,2013-02-08 14:59:00,
2013-02-08 10:04:00,69.5,62.6,30.03,SW,227,9.8,16.5,79,0.00,,,0.00,WUHU216PEETBRO,2013-02-08 15:04:00,
2013-02-08 10:09:00,69.7,62.7,30.03,West,266,5.7,16.5,78,0.00,,,0.00,WUHU216PEETBRO,2013-02-08 15:09:00,
2013-02-08 10:14:00,70.1,62.6,30.03,WSW,251,6.1,12.4,77,0.00,,,0.00,WUHU216PEETBRO,2013-02-08 15:14:00,
2013-02-08 10:19:00,70.3,62.7,30.03,West,266,8.7,11.1,77,0.00,,,0.00,WUHU216PEETBRO,2013-02-08 15:19:00,
2013-02-08 10:24:00,70.6,62.9,30.03,WNW,297,5.1,11.9,76,0.00,,,0.00,WUHU216PEETBRO,2013-02-08 15:24:00,
2013-02-08 10:29:00,71.0,63.4,30.03,West,279,5.8,12.4,77,0.00,,,0.00,WUHU216PEETBRO,2013-02-08 15:29:00,
2013-02-08 10:34:00,71.2,62.8,30.03,WNW,297,7.1,16.3,74,0.00,,,0.00,WUHU216PEETBRO,2013-02-08 15:34:00,
2013-02-08 10:39:00,71.5,63.2,30.03,SW,221,7.8,16.3,75,0.00,,,0.00,WUHU216PEETBRO,2013-02-08 15:39:00,
2013-02-08 10:44:00,71.9,63.3,30.03,WNW,296,10.7,10.7,74,0.00,,,0.00,WUHU216PEETBRO,2013-02-08 15:44:00,
2013-02-08 10:49:00,72.4,63.4,30.03,WSW,245,6.8,11.2,73,0.00,,,0.00,WUHU216PEETBRO,2013-02-08 15:49:00,
2013-02-08 10:54:00,72.9,63.4,30.03,North,354,5.1,11.2,72,0.00,,,0.00,WUHU216PEETBRO,2013-02-08 15:54:00,
2013-02-08 10:59:00,73.0,63.8,30.03,NNE,28,0.0,9.7,72,0.00,,,0.00,WUHU216PEETBRO,2013-02-08 15:59:00,
2013-02-08 11:04:00,73.3,63.9,30.03,West,280,6.8,11.5,72,0.00,,,0.00,WUHU216PEETBRO,2013-02-08 16:04:00,
2013-02-08 11:09:00,73.9,63.8,30.03,SSW,210,7.8,11.5,70,0.00,,,0.00,WUHU216PEETBRO,2013-02-08 16:09:00,
2013-02-08 11:14:00,74.0,64.2,30.03,WNW,286,8.9,10.6,71,0.00,,,0.00,WUHU216PEETBRO,2013-02-08 16:14:00,
2013-02-08 11:19:00,73.5,62.9,30.03,West,259,8.9,17.1,69,0.00,,,0.00,WUHU216PEETBRO,2013-02-08 16:19:00,
2013-02-08 11:24:00,73.8,63.8,30.03,WNW,282,10.7,17.1,70,0.00,,,0.00,WUHU216PEETBRO,2013-02-08 16:24:00,
2013-02-08 11:29:00,73.9,63.7,30.03,NNW,327,5.0,14.4,70,0.00,,,0.00,WUHU216PEETBRO,2013-02-08 16:29:00,
2013-02-08 11:34:00,74.6,64.0,30.03,WNW,285,10.7,14.4,69,0.00,,,0.00,WUHU216PEETBRO,2013-02-08 16:34:00,
2013-02-08 11:39:00,74.7,63.5,30.03,WSW,245,12.4,14.7,68,0.00,,,0.00,WUHU216PEETBRO,2013-02-08 16:39:00,
2013-02-08 11:44:00,74.6,63.7,30.03,WNW,303,4.7,14.7,68,0.00,,,0.00,WUHU216PEETBRO,2013-02-08 16:44:00,
2013-02-08 11:49:00,74.5,63.6,30.03,SSW,194,7.3,14.4,68,0.00,,,0.00,WUHU216PEETBRO,2013-02-08 16:49:00,
2013-02-08 11:54:00,74.7,63.8,30.02,SW,215,11.1,14.2,68,0.00,,,0.00,WUHU216PEETBRO,2013-02-08 16:54:00,
2013-02-08 11:59:00,74.8,64.4,30.02,WSW,255,4.7,15.7,70,0.00,,,0.00,WUHU216PEETBRO,2013-02-08 16:59:00,
2013-02-08 12:04:00,75.1,64.5,30.02,NW,323,5.4,15.7,69,0.00,,,0.00,WUHU216PEETBRO,2013-02-08 17:04:00,
2013-02-08 12:09:00,75.3,64.8,30.01,WNW,303,3.5,15.2,70,0.00,,,0.00,WUHU216PEETBRO,2013-02-08 17:09:00,
2013-02-08 12:14:00,75.4,64.6,30.01,WSW,239,13.7,15.4,69,0.00,,,0.00,WUHU216PEETBRO,2013-02-08 17:14:00,
2013-02-08 12:19:00,75.3,64.2,30.01,WSW,244,13.8,15.4,68,0.00,,,0.00,WUHU216PEETBRO,2013-02-08 17:19:00,
2013-02-08 12:24:00,75.4,65.2,30.01,SW,225,9.4,17.5,70,0.00,,,0.00,WUHU216PEETBRO,2013-02-08 17:24:00,
2013-02-08 12:29:00,76.0,65.9,30.01,WSW,247,9.9,17.0,71,0.00,,,0.00,WUHU216PEETBRO,2013-02-08 17:29:00,
2013-02-08 12:34:00,75.4,65.5,30.01,WSW,241,8.6,14.0,71,0.00,,,0.00,WUHU216PEETBRO,2013-02-08 17:34:00,
2013-02-08 12:39:00,75.6,65.8,30.01,WSW,251,8.5,14.5,71,0.00,,,0.00,WUHU216PEETBRO,2013-02-08 17:39:00,
2013-02-08 12:44:00,75.9,66.0,30.01,WSW,255,7.0,15.9,71,0.00,,,0.00,WUHU216PEETBRO,2013-02-08 17:44:00,
2013-02-08 12:49:00,76.0,65.9,30.01,SW,217,8.9,15.9,70,0.00,,,0.00,WUHU216PEETBRO,2013-02-08 17:49:00,
2013-02-08 12:54:00,76.1,66.0,30.01,WNW,297,5.5,14.8,70,0.00,,,0.00,WUHU216PEETBRO,2013-02-08 17:54:00,
2013-02-08 12:59:00,76.2,65.8,30.00,WSW,248,2.7,13.9,70,0.00,,,0.00,WUHU216PEETBRO,2013-02-08 17:59:00,
2013-02-08 13:04:00,76.5,66.2,30.00,SW,234,8.2,11.9,70,0.00,,,0.00,WUHU216PEETBRO,2013-02-08 18:04:00,
2013-02-08 13:09:00,76.6,66.3,30.00,WSW,237,6.4,12.4,70,0.00,,,0.00,WUHU216PEETBRO,2013-02-08 18:09:00,
2013-02-08 13:14:00,76.3,66.2,30.00,WSW,241,10.7,15.7,71,0.00,,,0.00,WUHU216PEETBRO,2013-02-08 18:14:00,
2013-02-08 13:19:00,76.1,65.1,30.00,SW,235,10.8,15.7,68,0.00,,,0.00,WUHU216PEETBRO,2013-02-08 18:19:00,
2013-02-08 13:24:00,76.9,66.0,29.99,SW,223,10.4,14.9,69,0.00,,,0.00,WUHU216PEETBRO,2013-02-08 18:24:00,
2013-02-08 13:29:00,77.0,66.3,29.99,ESE,119,5.2,14.9,69,0.00,,,0.00,WUHU216PEETBRO,2013-02-08 18:29:00,
2013-02-08 13:34:00,76.7,66.3,29.99,WNW,286,6.8,15.5,70,0.00,,,0.00,WUHU216PEETBRO,2013-02-08 18:34:00,
2013-02-08 13:40:00,77.0,66.4,29.99,WSW,244,6.1,15.5,69,0.00,,,0.00,WUHU216PEETBRO,2013-02-08 18:40:00,
2013-02-08 13:45:00,77.2,65.4,29.99,WSW,247,9.4,14.5,67,0.00,,,0.00,WUHU216PEETBRO,2013-02-08 18:45:00,
2013-02-08 13:50:00,77.1,65.3,29.98,WSW,244,10.0,14.0,67,0.00,,,0.00,WUHU216PEETBRO,2013-02-08 18:50:00,
2013-02-08 13:55:00,77.3,66.2,29.99,WSW,248,9.7,13.7,68,0.00,,,0.00,WUHU216PEETBRO,2013-02-08 18:55:00,
2013-02-08 14:00:00,77.3,65.4,29.98,WSW,249,12.4,13.7,66,0.00,,,0.00,WUHU216PEETBRO,2013-02-08 19:00:00,
2013-02-08 14:05:00,77.3,65.8,29.98,West,272,8.2,13.4,67,0.00,,,0.00,WUHU216PEETBRO,2013-02-08 19:05:00,
2013-02-08 14:10:00,77.5,66.1,29.98,West,268,8.2,12.9,68,0.00,,,0.00,WUHU216PEETBRO,2013-02-08 19:10:00,
2013-02-08 14:15:00,78.0,66.6,29.98,WNW,286,9.1,12.9,68,0.00,,,0.00,WUHU216PEETBRO,2013-02-08 19:15:00,
2013-02-08 14:20:00,78.3,66.1,29.98,WSW,256,7.6,11.3,66,0.00,,,0.00,WUHU216PEETBRO,2013-02-08 19:20:00,
2013-02-08 14:25:00,77.7,66.0,29.98,West,261,7.8,13.9,67,0.00,,,0.00,WUHU216PEETBRO,2013-02-08 19:25:00,
2013-02-08 14:30:00,77.3,65.3,29.98,SW,227,7.2,13.9,66,0.00,,,0.00,WUHU216PEETBRO,2013-02-08 19:30:00,
2013-02-08 14:35:00,77.4,65.5,29.98,West,269,7.6,13.7,66,0.00,,,0.00,WUHU216PEETBRO,2013-02-08 19:35:00,
2013-02-08 14:40:00,77.3,65.8,29.98,WSW,251,6.0,12.7,67,0.00,,,0.00,WUHU216PEETBRO,2013-02-08 19:40:00,
2013-02-08 14:45:00,77.9,65.9,29.98,WSW,237,8.6,11.9,66,0.00,,,0.00,WUHU216PEETBRO,2013-02-08 19:45:00,
2013-02-08 14:50:00,77.8,65.9,29.98,West,272,7.5,9.8,66,0.00,,,0.00,WUHU216PEETBRO,2013-02-08 19:50:00,
2013-02-08 14:55:00,78.0,65.5,29.98,West,269,2.1,11.6,65,0.00,,,0.00,WUHU216PEETBRO,2013-02-08 19:55:00,
2013-02-08 15:00:00,78.1,65.0,29.98,WNW,296,6.5,13.5,64,0.00,,,0.00,WUHU216PEETBRO,2013-02-08 20:00:00,
2013-02-08 15:05:00,78.1,64.2,29.98,WNW,283,6.9,13.5,62,0.00,,,0.00,WUHU216PEETBRO,2013-02-08 20:05:00,
2013-02-08 15:10:00,78.2,65.4,29.98,West,265,2.7,9.9,64,0.00,,,0.00,WUHU216PEETBRO,2013-02-08 20:10:00,
2013-02-08 15:15:00,78.3,65.3,29.98,SW,223,10.2,10.2,64,0.00,,,0.00,WUHU216PEETBRO,2013-02-08 20:15:00,
2013-02-08 15:20:00,78.4,65.1,29.98,WSW,249,5.7,11.4,63,0.00,,,0.00,WUHU216PEETBRO,2013-02-08 20:20:00,
2013-02-08 15:25:00,78.3,65.3,29.98,SW,235,8.3,11.9,64,0.00,,,0.00,WUHU216PEETBRO,2013-02-08 20:25:00,
2013-02-08 15:30:00,78.3,64.4,29.98,WNW,303,5.2,11.9,62,0.00,,,0.00,WUHU216PEETBRO,2013-02-08 20:30:00,
2013-02-08 15:35:00,78.5,64.7,29.98,West,279,7.7,10.7,62,0.00,,,0.00,WUHU216PEETBRO,2013-02-08 20:35:00,
2013-02-08 15:40:00,78.7,64.8,29.98,SSE,159,3.2,11.1,62,0.00,,,0.00,WUHU216PEETBRO,2013-02-08 20:40:00,
2013-02-08 15:45:00,78.9,65.1,29.98,SW,228,6.6,11.1,62,0.00,,,0.00,WUHU216PEETBRO,2013-02-08 20:45:00,
2013-02-08 15:50:00,79.0,64.3,29.98,WSW,258,5.7,10.1,60,0.00,,,0.00,WUHU216PEETBRO,2013-02-08 20:50:00,
2013-02-08 15:55:00,78.9,64.4,29.98,NNW,328,0.0,10.1,61,0.00,,,0.00,WUHU216PEETBRO,2013-02-08 20:55:00,
2013-02-08 16:00:00,78.9,64.7,29.98,WNW,295,3.3,9.8,61,0.00,,,0.00,WUHU216PEETBRO,2013-02-08 21:00:00,
2013-02-08 16:05:00,78.9,63.9,29.98,WNW,303,5.0,12.7,60,0.00,,,0.00,WUHU216PEETBRO,2013-02-08 21:05:00,
2013-02-08 16:10:00,78.8,63.7,29.98,NW,319,3.0,12.7,60,0.00,,,0.00,WUHU216PEETBRO,2013-02-08 21:10:00,
2013-02-08 16:15:00,79.0,63.6,29.98,WSW,256,7.8,9.8,59,0.00,,,0.00,WUHU216PEETBRO,2013-02-08 21:15:00,
2013-02-08 16:20:00,79.0,63.6,29.98,WSW,245,3.2,13.2,59,0.00,,,0.00,WUHU216PEETBRO,2013-02-08 21:20:00,
2013-02-08 16:25:00,79.0,63.3,29.98,NW,321,6.8,13.2,58,0.00,,,0.00,WUHU216PEETBRO,2013-02-08 21:25:00,
2013-02-08 16:30:00,78.9,63.3,29.98,West,265,9.4,11.1,58,0.00,,,0.00,WUHU216PEETBRO,2013-02-08 21:30:00,
2013-02-08 16:35:00,78.9,63.2,29.98,WSW,258,4.5,11.1,58,0.00,,,0.00,WUHU216PEETBRO,2013-02-08 21:35:00,
2013-02-08 16:40:00,78.8,62.8,29.98,West,280,4.8,10.4,58,0.00,,,0.00,WUHU216PEETBRO,2013-02-08 21:40:00,
2013-02-08 16:45:00,78.7,62.9,29.98,NNW,337,5.0,10.4,58,0.00,,,0.00,WUHU216PEETBRO,2013-02-08 21:45:00,
2013-02-08 16:51:00,78.7,62.5,29.98,West,268,7.3,9.6,57,0.00,,,0.00,WUHU216PEETBRO,2013-02-08 21:51:00,
2013-02-08 16:56:00,78.5,62.5,29.98,WSW,251,3.4,9.8,58,0.00,,,0.00,WUHU216PEETBRO,2013-02-08 21:56:00,
2013-02-08 17:01:00,78.3,61.8,29.98,SW,228,6.8,9.8,57,0.00,,,0.00,WUHU216PEETBRO,2013-02-08 22:01:00,
2013-02-08 17:06:00,78.2,61.6,29.98,West,262,5.0,9.4,56,0.00,,,0.00,WUHU216PEETBRO,2013-02-08 22:06:00,
2013-02-08 17:13:00,78.1,61.1,29.98,NW,314,8.0,10.4,56,0.00,,,0.00,WUHU216PEETBRO,2013-02-08 22:13:00,
2013-02-08 17:18:00,78.1,60.9,29.98,WNW,285,0.0,10.4,55,0.00,,,0.00,WUHU216PEETBRO,2013-02-08 22:18:00,
2013-02-08 17:23:00,78.0,60.6,29.98,West,280,7.9,10.3,55,0.00,,,0.00,WUHU216PEETBRO,2013-02-08 22:23:00,
2013-02-08 17:28:00,78.0,60.3,29.98,West,266,5.4,8.5,54,0.00,,,0.00,WUHU216PEETBRO,2013-02-08 22:28:00,
2013-02-08 17:33:00,77.9,60.1,29.98,NW,319,0.0,9.1,54,0.00,,,0.00,WUHU216PEETBRO,2013-02-08 22:33:00,
2013-02-08 17:38:00,77.8,59.8,29.99,SW,228,5.0,9.1,54,0.00,,,0.00,WUHU216PEETBRO,2013-02-08 22:38:00,
2013-02-08 17:43:00,77.4,58.9,29.99,West,265,9.2,9.5,53,0.00,,,0.00,WUHU216PEETBRO,2013-02-08 22:43:00,
2013-02-08 17:48:00,77.1,58.5,29.99,WSW,247,5.3,9.5,52,0.00,,,0.00,WUHU216PEETBRO,2013-02-08 22:48:00,
2013-02-08 17:53:00,77.0,57.9,29.99,WSW,258,4.3,9.2,52,0.00,,,0.00,WUHU216PEETBRO,2013-02-08 22:53:00,
2013-02-08 17:58:00,76.9,58.0,30.00,WNW,290,4.2,7.1,52,0.00,,,0.00,WUHU216PEETBRO,2013-02-08 22:58:00,
2013-02-08 18:03:00,76.7,57.7,30.00,West,266,6.2,8.0,52,0.00,,,0.00,WUHU216PEETBRO,2013-02-08 23:03:00,
2013-02-08 18:08:00,76.3,57.3,30.00,SW,220,0.0,8.0,52,0.00,,,0.00,WUHU216PEETBRO,2013-02-08 23:08:00,
2013-02-08 18:13:00,76.1,56.9,30.00,WSW,238,0.0,6.8,51,0.00,,,0.00,WUHU216PEETBRO,2013-02-08 23:13:00,
2013-02-08 18:18:00,75.8,56.3,30.00,WSW,252,0.0,5.7,51,0.00,,,0.00,WUHU216PEETBRO,2013-02-08 23:18:00,
2013-02-08 18:24:00,75.5,55.8,30.01,West,272,0.0,6.3,50,0.00,,,0.00,WUHU216PEETBRO,2013-02-08 23:24:00,
2013-02-08 18:29:00,75.2,55.3,30.01,West,271,0.0,6.3,50,0.00,,,0.00,WUHU216PEETBRO,2013-02-08 23:29:00,
2013-02-08 18:34:00,74.9,54.8,30.01,West,271,0.0,3.5,50,0.00,,,0.00,WUHU216PEETBRO,2013-02-08 23:34:00,
2013-02-08 18:39:00,74.7,54.5,30.01,WSW,247,0.0,4.2,49,0.00,,,0.00,WUHU216PEETBRO,2013-02-08 23:39:00,
2013-02-08 18:44:00,74.3,54.0,30.01,WSW,247,0.0,4.2,49,0.00,,,0.00,WUHU216PEETBRO,2013-02-08 23:44:00,
2013-02-08 18:49:00,74.1,53.6,30.01,WSW,247,0.0,0.0,49,0.00,,,0.00,WUHU216PEETBRO,2013-02-08 23:49:00,
2013-02-08 18:54:00,73.8,53.1,30.02,WSW,247,0.0,0.0,48,0.00,,,0.00,WUHU216PEETBRO,2013-02-08 23:54:00,
2013-02-08 18:59:00,73.6,52.8,30.02,WSW,247,0.0,0.0,48,0.00,,,0.00,WUHU216PEETBRO,2013-02-08 23:59:00,
2013-02-08 19:04:00,73.5,52.9,30.02,WSW,247,0.0,0.0,49,0.00,,,0.00,WUHU216PEETBRO,2013-02-09 00:04:00,
2013-02-08 19:09:00,73.1,53.1,30.02,WSW,247,0.0,0.0,50,0.00,,,0.00,WUHU216PEETBRO,2013-02-09 00:09:00,
2013-02-08 19:14:00,72.8,53.1,30.02,WSW,247,0.0,0.0,50,0.00,,,0.00,WUHU216PEETBRO,2013-02-09 00:14:00,
2013-02-08 19:19:00,72.5,53.2,30.03,WSW,247,0.0,0.0,51,0.00,,,0.00,WUHU216PEETBRO,2013-02-09 00:19:00,
2013-02-08 19:24:00,72.4,53.5,30.03,WSW,247,0.0,0.0,51,0.00,,,0.00,WUHU216PEETBRO,2013-02-09 00:24:00,
2013-02-08 19:29:00,72.2,53.6,30.03,WSW,247,0.0,0.0,52,0.00,,,0.00,WUHU216PEETBRO,2013-02-09 00:29:00,
2013-02-08 19:34:00,72.0,53.7,30.03,WSW,247,0.0,0.0,52,0.00,,,0.00,WUHU216PEETBRO,2013-02-09 00:34:00,
2013-02-08 19:39:00,71.7,53.9,30.03,WSW,247,0.0,0.0,53,0.00,,,0.00,WUHU216PEETBRO,2013-02-09 00:39:00,
2013-02-08 19:44:00,71.6,54.1,30.04,WSW,247,0.0,0.0,54,0.00,,,0.00,WUHU216PEETBRO,2013-02-09 00:44:00,
2013-02-08 19:49:00,71.3,54.1,30.04,WSW,247,0.0,0.0,54,0.00,,,0.00,WUHU216PEETBRO,2013-02-09 00:49:00,
2013-02-08 19:54:00,71.0,54.2,30.04,WSW,252,2.5,2.9,55,0.00,,,0.00,WUHU216PEETBRO,2013-02-09 00:54:00,
2013-02-08 19:59:00,70.9,54.9,30.04,WSW,252,0.0,2.9,57,0.00,,,0.00,WUHU216PEETBRO,2013-02-09 00:59:00,
2013-02-08 20:04:00,70.8,55.1,30.05,WSW,252,0.0,0.0,57,0.00,,,0.00,WUHU216PEETBRO,2013-02-09 01:04:00,
2013-02-08 20:09:00,70.6,55.0,30.05,WSW,252,0.0,0.0,58,0.00,,,0.00,WUHU216PEETBRO,2013-02-09 01:09:00,
2013-02-08 20:14:00,70.5,55.2,30.05,WSW,252,0.0,0.0,58,0.00,,,0.00,WUHU216PEETBRO,2013-02-09 01:14:00,
2013-02-08 20:19:00,70.2,55.4,30.06,WSW,252,0.0,0.0,59,0.00,,,0.00,WUHU216PEETBRO,2013-02-09 01:19:00,
2013-02-08 20:24:00,69.6,55.5,30.06,WSW,252,0.0,0.0,60,0.00,,,0.00,WUHU216PEETBRO,2013-02-09 01:24:00,
2013-02-08 20:29:00,69.2,55.9,30.06,WSW,252,0.0,0.0,62,0.00,,,0.00,WUHU216PEETBRO,2013-02-09 01:29:00,
2013-02-08 20:34:00,68.8,56.5,30.06,WSW,252,0.0,0.0,64,0.00,,,0.00,WUHU216PEETBRO,2013-02-09 01:34:00,
2013-02-08 20:39:00,68.3,57.3,30.06,WSW,252,0.0,0.0,68,0.00,,,0.00,WUHU216PEETBRO,2013-02-09 01:39:00,
2013-02-08 20:44:00,68.0,57.5,30.07,WSW,252,0.0,0.0,69,0.00,,,0.00,WUHU216PEETBRO,2013-02-09 01:44:00,
2013-02-08 20:49:00,67.3,57.6,30.07,WSW,252,0.0,0.0,71,0.00,,,0.00,WUHU216PEETBRO,2013-02-09 01:49:00,
2013-02-08 20:54:00,66.9,57.3,30.07,WSW,252,0.0,0.0,71,0.00,,,0.00,WUHU216PEETBRO,2013-02-09 01:54:00,
2013-02-08 20:59:00,66.8,57.2,30.07,SSW,201,0.0,3.0,71,0.00,,,0.00,WUHU216PEETBRO,2013-02-09 01:59:00,
2013-02-08 21:04:00,67.0,56.8,30.07,WSW,258,0.0,3.5,69,0.00,,,0.00,WUHU216PEETBRO,2013-02-09 02:04:00,
2013-02-08 21:09:00,67.3,56.5,30.08,WNW,290,0.0,4.3,68,0.00,,,0.00,WUHU216PEETBRO,2013-02-09 02:09:00,
2013-02-08 21:14:00,67.3,56.3,30.08,West,262,0.0,4.3,67,0.00,,,0.00,WUHU216PEETBRO,2013-02-09 02:14:00,
2013-02-08 21:19:00,67.1,56.9,30.08,NW,310,0.0,5.3,69,0.00,,,0.00,WUHU216PEETBRO,2013-02-09 02:19:00,
2013-02-08 21:24:00,67.2,57.0,30.09,NW,310,0.0,5.3,69,0.00,,,0.00,WUHU216PEETBRO,2013-02-09 02:24:00,
2013-02-08 21:29:00,67.0,57.3,30.09,North,5,0.0,4.2,71,0.00,,,0.00,WUHU216PEETBRO,2013-02-09 02:29:00,
2013-02-08 21:34:00,66.8,57.7,30.09,NNW,344,0.0,4.2,72,0.00,,,0.00,WUHU216PEETBRO,2013-02-09 02:34:00,
2013-02-08 21:39:00,66.4,57.8,30.09,NNW,344,0.0,3.3,73,0.00,,,0.00,WUHU216PEETBRO,2013-02-09 02:39:00,
2013-02-08 21:44:00,66.4,59.0,30.09,NNW,344,0.0,0.0,77,0.00,,,0.00,WUHU216PEETBRO,2013-02-09 02:44:00,
2013-02-08 21:49:00,66.1,60.2,30.09,NNE,23,0.0,3.4,81,0.00,,,0.00,WUHU216PEETBRO,2013-02-09 02:49:00,
2013-02-08 21:54:00,66.0,60.5,30.09,NNE,23,0.0,3.4,82,0.00,,,0.00,WUHU216PEETBRO,2013-02-09 02:54:00,
2013-02-08 21:59:00,65.8,60.4,30.09,NNE,23,0.0,0.0,83,0.00,,,0.00,WUHU216PEETBRO,2013-02-09 02:59:00,
2013-02-08 22:04:00,65.7,60.8,30.10,NNE,23,0.0,0.0,84,0.00,,,0.00,WUHU216PEETBRO,2013-02-09 03:04:00,
2013-02-08 22:09:00,65.4,60.9,30.10,NNE,23,0.0,0.0,85,0.00,,,0.00,WUHU216PEETBRO,2013-02-09 03:09:00,
2013-02-08 22:14:00,65.4,61.0,30.10,NNE,23,0.0,0.0,86,0.00,,,0.00,WUHU216PEETBRO,2013-02-09 03:14:00,
2013-02-08 22:19:00,65.1,61.1,30.10,NNE,23,0.0,0.0,87,0.00,,,0.00,WUHU216PEETBRO,2013-02-09 03:19:00,
2013-02-08 22:24:00,64.9,61.3,30.11,NNW,344,0.0,4.2,88,0.00,,,0.00,WUHU216PEETBRO,2013-02-09 03:24:00,
2013-02-08 22:29:00,64.6,61.4,30.10,NNE,19,5.3,5.3,90,0.00,,,0.00,WUHU216PEETBRO,2013-02-09 03:29:00,
2013-02-08 22:34:00,64.2,61.3,30.10,North,359,0.0,5.3,90,0.00,,,0.00,WUHU216PEETBRO,2013-02-09 03:34:00,
2013-02-08 22:39:00,64.0,61.3,30.10,NNE,14,0.0,5.2,91,0.00,,,0.00,WUHU216PEETBRO,2013-02-09 03:39:00,
2013-02-08 22:44:00,63.6,61.0,30.11,NNE,26,3.1,5.3,91,0.00,,,0.00,WUHU216PEETBRO,2013-02-09 03:44:00,
2013-02-08 22:49:00,63.4,60.8,30.11,NNE,26,0.0,5.3,92,0.00,,,0.00,WUHU216PEETBRO,2013-02-09 03:49:00,
2013-02-08 22:54:00,63.2,60.7,30.11,NNE,26,0.0,0.0,92,0.00,,,0.00,WUHU216PEETBRO,2013-02-09 03:54:00,
2013-02-08 22:59:00,63.2,60.7,30.11,NNE,26,0.0,0.0,92,0.00,,,0.00,WUHU216PEETBRO,2013-02-09 03:59:00,
2013-02-08 23:04:00,63.2,60.7,30.11,NNE,26,0.0,0.0,92,0.00,,,0.00,WUHU216PEETBRO,2013-02-09 04:04:00,
2013-02-08 23:09:00,63.0,60.5,30.11,NNE,26,0.0,0.0,92,0.00,,,0.00,WUHU216PEETBRO,2013-02-09 04:09:00,
2013-02-08 23:14:00,62.8,60.3,30.11,NNE,32,0.0,0.0,92,0.00,,,0.00,WUHU216PEETBRO,2013-02-09 04:14:00,
2013-02-08 23:19:00,62.6,60.1,30.11,NNE,32,0.0,0.0,92,0.00,,,0.00,WUHU216PEETBRO,2013-02-09 04:19:00,
2013-02-08 23:24:00,62.4,59.9,30.11,NNE,32,0.0,0.0,92,0.00,,,0.00,WUHU216PEETBRO,2013-02-09 04:24:00,
2013-02-08 23:29:00,62.2,59.7,30.11,NNE,32,0.0,0.0,92,0.00,,,0.00,WUHU216PEETBRO,2013-02-09 04:29:00,
2013-02-08 23:34:00,62.0,59.5,30.11,NNE,32,0.0,0.0,92,0.00,,,0.00,WUHU216PEETBRO,2013-02-09 04:34:00,
2013-02-08 23:39:00,61.9,59.5,30.11,NNE,32,0.0,0.0,92,0.00,,,0.00,WUHU216PEETBRO,2013-02-09 04:39:00,
2013-02-08 23:44:00,61.9,59.5,30.11,NNE,32,0.0,0.0,92,0.00,,,0.00,WUHU216PEETBRO,2013-02-09 04:44:00,
2013-02-08 23:49:00,61.9,59.5,30.11,NNE,32,0.0,0.0,92,0.00,,,0.00,WUHU216PEETBRO,2013-02-09 04:49:00,
2013-02-08 23:54:00,61.8,59.4,30.11,NNE,32,0.0,0.0,92,0.00,,,0.00,WUHU216PEETBRO,2013-02-09 04:54:00,
2013-02-08 23:59:00,61.8,59.4,30.11,NNE,32,0.0,0.0,92,0.00,,,0.00,WUHU216PEETBRO,2013-02-09 04:59:00,